Flag for U.S.A. Weather past 2 weeks in Freehold, New Jersey, U.S.A.

Now
21 °F

Passing clouds.


Feels Like: 9 °F
Forecast: 10 / 24 °F
Wind: 12 mph from Northwest

Location: Belmar-Farmdale

Current Time: Mar 5, 2015 at 11:23:24 PM

Latest Report: Mar 5, 2015 at 10:35 PM


Visibility: 10 mi

Pressure: 30.33 "Hg

Humidity: 63%

Dew point: 10 °F

Location of FreeholdLocation

Historic Weather in Freehold — Graph

°F

Freehold temperature yesterday

Maximum temperature yesterday: 45 °F (at 1:15 PM)
Minimum temperature yesterday: 34 °F (at 12:15 AM)
Average temperature yesterday: 40 °F

Past Weeks' High & Low Weather Summary

 TemperatureHumidityPressure
High45 °F (Mar 4, 1:15 PM)87% (Mar 4, 12:55 AM)30.81 "Hg (Mar 4, 12:55 AM)
Low0 °F (Feb 20, 6:55 AM)28% (Feb 23, 4:35 PM)29.74 "Hg (Feb 18, 11:15 PM)
Average25 °F58%30.20 "Hg
* Reported Feb 18 9:15 PM — Mar 5 9:55 PM, Freehold, Weather by CustomWeather, © 2015

Note: Actual official high and low records may vary slightly from our data, if they occured in-between our weather recording intervals... More about our weather records

Advertising

Freehold weather history for previous 24 hours

 ConditionsComfort  
Time TempWeatherWind HumidityBarometerVisibility
9:55 PM
Thu, Mar 5
21 °FMostly cloudy.12 mph63%30.32 "Hg10 mi
9:35 PM19 °FOvercast.10 mph68%30.31 "Hg10 mi
9:15 PM19 °FMostly cloudy.9 mph68%30.30 "Hg10 mi
8:55 PM19 °FOvercast.12 mph68%30.29 "Hg10 mi
8:35 PM19 °FOvercast.12 mph68%30.29 "Hg10 mi
8:15 PM19 °FOvercast.13 mph68%30.27 "Hg10 mi
7:55 PM19 °FMostly cloudy.14 mph68%30.26 "Hg10 mi
7:35 PM19 °FOvercast.13 mph73%30.25 "Hg10 mi
6:55 PM19 °FMostly cloudy.14 mph73%30.24 "Hg10 mi
6:35 PM19 °FMostly cloudy.15 mph73%30.23 "Hg5 mi
6:15 PM19 °FPartly cloudy.15 mph73%30.23 "Hg5 mi
5:55 PM21 °FMostly cloudy.18 mph68%30.24 "Hg2 mi
5:35 PM21 °FMostly cloudy.10 mph74%30.18 "Hg2 mi
4:55 PM21 °FOvercast.10 mph68%30.20 "Hg2 mi
4:35 PM21 °FOvercast.12 mph74%30.18 "Hg1 mi
3:55 PM21 °FOvercast.10 mph74%30.18 "Hg1 mi
3:35 PM21 °FLow clouds.13 mph74%30.17 "Hg1 mi
3:15 PM23 °FLow clouds.12 mph74%30.17 "Hg1 mi
2:55 PM23 °FLow clouds.10 mph74%30.17 "Hg1 mi
2:35 PM23 °FLow clouds.10 mph74%30.17 "Hg1 mi
2:15 PM23 °FOvercast.12 mph74%30.15 "Hg1 mi
1:55 PM25 °FMostly cloudy.16 mph69%30.16 "Hg2 mi
1:35 PM25 °FLow clouds.14 mph74%30.13 "Hg1 mi
12:55 PM27 °FLow clouds.12 mph74%30.13 "Hg1 mi
12:35 PM27 °FLow clouds.10 mph74%30.15 "Hg1 mi
12:15 PM27 °FLow clouds.9 mph80%30.16 "Hg1 mi
11:55 AM27 °FLow clouds.12 mph80%30.15 "Hg1 mi
11:35 AM28 °FLow clouds.15 mph74%30.12 "Hg1 mi
11:15 AM28 °FLow clouds.13 mph80%30.10 "Hg1 mi
10:55 AM28 °FMostly cloudy.12 mph80%30.10 "Hg1 mi
10:35 AM28 °FLow clouds.13 mph80%30.09 "Hg1 mi
10:15 AM30 °FLow clouds.14 mph75%30.10 "Hg1 mi
9:55 AM30 °FLow clouds.16 mph80%30.10 "Hg1 mi
9:35 AM32 °FLow clouds.14 mph80%30.10 "Hg1 mi
9:15 AM32 °FLow clouds.10 mph80%30.08 "Hg1 mi
8:55 AM32 °FMostly cloudy.9 mph80%30.08 "Hg1 mi
8:35 AM32 °FMostly cloudy.13 mph80%30.07 "Hg1 mi
8:15 AM34 °FMostly cloudy.13 mph75%30.06 "Hg1 mi
7:55 AM34 °FMostly cloudy.8 mph75%30.04 "Hg1 mi
7:35 AM34 °FMostly cloudy.8 mph75%30.04 "Hg1 mi
7:15 AM34 °FCloudy.9 mph75%30.04 "Hg2 mi
6:55 AM34 °FCloudy.10 mph75%30.02 "Hg2 mi
6:35 AM34 °FBroken clouds.8 mph75%30.01 "Hg4 mi
6:15 AM34 °FMostly cloudy.12 mph75%30.01 "Hg4 mi
5:55 AM34 °FMostly cloudy.9 mph75%30.00 "Hg3 mi
5:35 AM34 °FMostly cloudy.14 mph75%30.01 "Hg3 mi
5:15 AM34 °FLow clouds.10 mph81%29.99 "Hg5 mi
4:55 AM36 °FMostly cloudy.15 mph75%29.97 "Hg8 mi
4:15 AM37 °FMostly cloudy.7 mph81%29.95 "Hg5 mi
3:55 AM37 °FMostly cloudy.7 mph81%29.94 "Hg5 mi
3:35 AM37 °FMostly cloudy.7 mph81%29.90 "Hg5 mi
3:15 AM37 °FOvercast.7 mph81%29.91 "Hg7 mi
2:55 AM37 °FOvercast.7 mph87%29.93 "Hg5 mi
2:35 AM37 °FMostly cloudy.8 mph87%29.93 "Hg5 mi
2:15 AM37 °FOvercast.7 mph87%29.91 "Hg5 mi
1:55 AM39 °FOvercast.7 mph81%29.91 "Hg5 mi
1:35 AM39 °FMostly cloudy.7 mph81%29.92 "Hg5 mi
1:15 AM39 °FOvercast.8 mph81%29.91 "Hg7 mi
12:55 AM39 °FMostly cloudy.8 mph81%29.90 "Hg6 mi
12:35 AM39 °FMostly cloudy.8 mph87%29.91 "Hg5 mi
12:15 AM39 °FMostly cloudy.7 mph87%29.91 "Hg5 mi
11:35 PM
Wed, Mar 4
41 °FOvercast.7 mph81%29.91 "Hg5 mi
11:15 PM41 °FMostly cloudy.6 mph81%29.90 "Hg3 mi
Weather by CustomWeather, © 2015

See weather overviewHow to use our weather pages